This demonstration page uses our WeatherBlox Daily Observations layout. Learn more.

39.92423, -83.80882

Hourly Observations for April 24, 2017

Temp ( °F °C ) Dew Point ( °F °C ) Humidity (%) Winds ( mph kmh ) Pressure ( in mb ) Visibility ( mi km ) Precip ( " mm )
12:56 am 00:56 Clear 47 8.3 38 3.3 71 71 NE 9 15 30 1016 10 16.0934 0 0
1:56 am 01:56 Clear 46 7.8 38 3.3 73 73 ENE 9 15 29.99 1016 10 16.0934 0 0
2:56 am 02:56 Clear 44 6.7 37 2.8 76 76 NE 10 17 29.97 1015 10 16.0934 0 0
3:56 am 03:56 Clear 44 6.7 36 2.2 73 73 NE 12 19 29.97 1015 10 16.0934 0 0
4:56 am 04:56 Clear 45 7.2 36 2.2 71 71 ENE 10 17 29.96 1015 10 16.0934 0 0
5:56 am 05:56 Clear 41 5 35 1.7 79 79 NE 10 17 29.96 1015 10 16.0934 0 0
6:56 am 06:56 Sunny 43 6.1 34 1.1 71 71 NE 8 13 29.96 1015 10 16.0934 0 0
7:56 am 07:56 Sunny 48 8.9 37 2.8 66 66 NE 8 13 29.97 1015 10 16.0934 0 0
8:56 am 08:56 Sunny 55 12.8 38 3.3 53 53 ENE 13 20 29.97 1015 10 16.0934 0 0
9:56 am 09:56 Sunny 60 15.6 39 3.9 46 46 ENE 16 26 29.96 1015 10 16.0934 0 0
10:56 am 10:56 Sunny 64 17.8 41 5 43 43 E 16 26 29.94 1014 10 16.0934 0 0
11:56 am 11:56 Sunny 68 20 45 7.2 44 44 E 15 24 29.93 1014 10 16.0934 0 0
12:56 pm 12:56 Sunny 71 21.7 46 7.8 41 41 ENE 15 24 29.92 1013 10 16.0934 0 0
1:56 pm 13:56 Sunny 73 22.8 48 8.9 41 41 E 17 28 29.89 1012 10 16.0934 0 0
2:56 pm 14:56 Mostly Cloudy 74 23.3 50 10 43 43 E 18 30 29.88 1012 10 16.0934 0 0
3:56 pm 15:56 Cloudy 71 21.7 51 10.6 49 49 E 20 31 29.87 1012 10 16.0934 0 0
4:56 pm 16:56 Cloudy 68 20 52 11.1 57 57 E 20 31 29.85 1011 10 16.0934 0 0
5:56 pm 17:56 Mostly Sunny 67 19.4 52 11.1 59 59 ESE 21 33 29.85 1011 10 16.0934 0 0
6:56 pm 18:56 Sunny 65 18.3 51 10.6 61 61 E 18 30 29.85 1011 10 16.0934 0 0
7:56 pm 19:56 Cloudy 62 16.7 51 10.6 67 67 E 17 28 29.86 1011 10 16.0934 0 0
8:56 pm 20:56 Cloudy 60 15.6 51 10.6 72 72 ESE 15 24 29.86 1011 10 16.0934 0 0
9:56 pm 21:56 Cloudy 59 15 50 10 72 72 E 14 22 29.85 1011 10 16.0934 0 0
10:38 pm 22:38 Cloudy 57 14 48 9 72 72 ESE 15 24 29.85 1011 10 16.0934 0 0
10:51 pm 22:51 Mostly Cloudy 55 13 48 9 77 77 E 12 19 29.85 1011 10 16.0934 0 0
10:56 pm 22:56 Mostly Cloudy 56 13.3 48 8.9 75 75 E 13 20 29.85 1011 10 16.0934 0 0
11:56 pm 23:56 Mostly Cloudy 55 12.8 48 8.9 77 77 E 12 19 29.85 1011 10 16.0934 0 0

Powered by AerisWeather